Starlink 31562

operational
NORAD ID: 59340 Int'l Des: 2024-057 Owner: SPXS Country: US Constellation: starlink
LEOCIRCULAR

Starlink 31562について

説明を読み込み中...

リアルタイム位置

3D地球を読み込み中...

次回通過

高度履歴

Altitude vs Time

uPlot chart will show altitude changes over time

軌道要素

1 59340U 24057W 25258.96169881 .00001540 00000-0 65458-4 0 9991
2 59340 43.0031 108.8269 0001198 276.9377 83.1338 15.27587096 82947
Epoch: Sep 15, 2025 • Age: 21 hours

現在のステータス

高度 488.9 km
速度 7.62 km/s
衛星直下点 -25.31°S, 11.54°E
打ち上げ日 Mar 25, 2024
運用期間 1.4 years
タイプ internet

技術仕様

分類 Payload
質量 730.00 kg
乾燥質量 700.00 kg
総質量 730.00 kg
長さ 0.30 m
直径 4.10 m
スパン 29.00 m
形状 Box + pan
製造者 SPXS
バスタイプ Starlink V2M
フェーズステータス In Orbit
所有者/国 SPXS/US

大規模コンステレーション

Loading constellations...